Location: Knowlton
(51.2333°N, 1.2667°E)
Time: 10:05:46
(UTC+00:00)

Cosmos 2344 - Pass Details

Date: 18 April 2021
Orbit: 1241 x 3001 km, 63.3° (Epoch: 05 May)

Event Time Altitude Azimuth Distance (km) Brightness Sun altitude
Rises 20:37:03 0° 217° (SW) 4,257 6.3 -14.5°
Reaches altitude 10° 20:39:49 10° 216° (SW) 3,232 5.7 -14.8°
Maximum altitude 20:47:13 81° 131° (SE) 1,281 3.5 -15.7°
Drops below altitude 10° 20:55:21 10° 46° (NE) 3,524 5.9 -16.6°
Sets 20:58:30 0° 46° (NE) 4,668 6.5 -17.0°
